FDB1026 VCBI-VRMM

Flight info

Callsign FDB1026
Flight time 1h 13m
Altitude 32000
Route LALUM1D TELIG DCT HOKEY HOKEY1B
Aircraft B738/M-SDGIJ1LRWY/SB1

Departure

Time 2026-05-05 08:49
Airport Bandaranaike International Colombo Airport (VCBI)

Arrival

Time 2026-05-05 10:03
Airport Velana International Airport (VRMM)
Time Latitude Longitude Altitude Speed Heading
2026-05-05 07:39 7.17005 79.88112 45 ft 0 kts 41°
2026-05-05 08:36 7.17005 79.88113 45 ft 0 kts 41°
2026-05-05 08:36 7.17005 79.88112 45 ft 0 kts 41°
2026-05-05 08:37 7.17004 79.88112 45 ft 1 kts 41°
2026-05-05 08:37 7.16998 79.88107 45 ft 1 kts 41°
2026-05-05 08:37 7.16984 79.88100 45 ft 2 kts 356°
2026-05-05 08:37 7.16970 79.88106 46 ft 2 kts 319°
2026-05-05 08:38 7.16966 79.88110 46 ft 1 kts 301°
2026-05-05 08:38 7.16963 79.88114 46 ft 0 kts 307°
2026-05-05 08:41 7.16975 79.88098 46 ft 3 kts 307°
2026-05-05 08:41 7.16995 79.88073 45 ft 5 kts 308°
2026-05-05 08:41 7.17021 79.88039 44 ft 7 kts 308°
2026-05-05 08:42 7.17059 79.87989 42 ft 10 kts 308°
2026-05-05 08:42 7.17109 79.87925 40 ft 12 kts 308°
2026-05-05 08:42 7.17177 79.87892 40 ft 11 kts 15°
2026-05-05 08:42 7.17238 79.87934 40 ft 9 kts 39°
2026-05-05 08:43 7.17288 79.87974 40 ft 8 kts 37°
2026-05-05 08:43 7.17340 79.88013 40 ft 10 kts 37°
2026-05-05 08:43 7.17408 79.88064 41 ft 14 kts 37°
2026-05-05 08:43 7.17491 79.88126 40 ft 14 kts 37°
2026-05-05 08:44 7.17568 79.88184 40 ft 13 kts 37°
2026-05-05 08:44 7.17652 79.88251 40 ft 16 kts 38°
2026-05-05 08:44 7.17736 79.88318 41 ft 14 kts 38°
2026-05-05 08:44 7.17814 79.88377 43 ft 14 kts 37°
2026-05-05 08:45 7.17899 79.88441 45 ft 16 kts 37°
2026-05-05 08:45 7.18003 79.88519 43 ft 20 kts 37°
2026-05-05 08:45 7.18119 79.88608 43 ft 20 kts 37°
2026-05-05 08:45 7.18224 79.88688 44 ft 18 kts 37°
2026-05-05 08:46 7.18320 79.88761 44 ft 17 kts 37°
2026-05-05 08:46 7.18423 79.88841 43 ft 19 kts 38°
2026-05-05 08:46 7.18534 79.88927 43 ft 20 kts 38°
2026-05-05 08:46 7.18654 79.89019 42 ft 22 kts 37°
2026-05-05 08:47 7.18789 79.89120 41 ft 26 kts 37°
2026-05-05 08:47 7.18932 79.89232 41 ft 25 kts 38°
2026-05-05 08:47 7.19066 79.89335 42 ft 23 kts 37°
2026-05-05 08:47 7.19176 79.89416 42 ft 12 kts 26°
2026-05-05 08:48 7.19244 79.89388 42 ft 11 kts 307°
2026-05-05 08:48 7.19294 79.89321 41 ft 11 kts 307°
2026-05-05 08:48 7.19294 79.89282 41 ft 5 kts 228°
2026-05-05 08:48 7.19198 79.89205 42 ft 46 kts 218°
2026-05-05 08:49 7.18747 79.88859 43 ft 115 kts 217°
2026-05-05 08:49 7.17941 79.88239 45 ft 172 kts 218°
2026-05-05 08:49 7.17003 79.87484 734 ft 170 kts 220°
2026-05-05 08:49 7.16087 79.86774 1272 ft 175 kts 219°
2026-05-05 08:50 7.15057 79.86018 1623 ft 189 kts 219°
2026-05-05 08:50 7.13983 79.85202 2018 ft 201 kts 220°
2026-05-05 08:50 7.12834 79.84307 2375 ft 217 kts 220°
2026-05-05 08:50 7.11583 79.83342 2757 ft 234 kts 220°
2026-05-05 08:51 7.10239 79.82309 3165 ft 250 kts 219°
2026-05-05 08:51 7.08806 79.81210 3579 ft 266 kts 219°
2026-05-05 08:51 7.07310 79.80061 4065 ft 277 kts 219°
2026-05-05 08:51 7.05750 79.78865 4737 ft 281 kts 219°
2026-05-05 08:52 7.04187 79.77665 5411 ft 285 kts 218°
2026-05-05 08:52 7.02613 79.76455 6060 ft 290 kts 217°
2026-05-05 08:52 7.01007 79.75224 6773 ft 292 kts 217°
2026-05-05 08:52 6.99397 79.73993 7537 ft 293 kts 217°
2026-05-05 08:53 6.97799 79.72661 8226 ft 299 kts 226°
2026-05-05 08:53 6.96613 79.70950 8912 ft 303 kts 240°
2026-05-05 08:53 6.95648 79.69074 9659 ft 307 kts 243°
2026-05-05 08:53 6.94712 79.67149 10389 ft 311 kts 243°
2026-05-05 08:54 6.93741 79.65125 10877 ft 324 kts 243°
2026-05-05 08:54 6.92759 79.63058 11341 ft 336 kts 243°
2026-05-05 08:54 6.91740 79.60899 11792 ft 349 kts 243°
2026-05-05 08:54 6.90676 79.58642 12183 ft 363 kts 243°
2026-05-05 08:55 6.89600 79.56347 12870 ft 366 kts 243°
2026-05-05 08:55 6.88514 79.54007 13686 ft 365 kts 243°
2026-05-05 08:55 6.87441 79.51689 14382 ft 368 kts 243°
2026-05-05 08:55 6.86367 79.49382 15055 ft 371 kts 243°
2026-05-05 08:56 6.85253 79.47005 15709 ft 374 kts 243°
2026-05-05 08:56 6.84150 79.44651 16363 ft 377 kts 243°
2026-05-05 08:56 6.83032 79.42281 16965 ft 380 kts 243°
2026-05-05 08:56 6.81879 79.39857 17580 ft 383 kts 243°
2026-05-05 08:57 6.80734 79.37465 18141 ft 387 kts 243°
2026-05-05 08:57 6.79557 79.35009 18705 ft 390 kts 243°
2026-05-05 08:57 6.78369 79.32542 19202 ft 395 kts 243°
2026-05-05 08:57 6.77170 79.30062 19752 ft 398 kts 243°
2026-05-05 08:58 6.75950 79.27563 20253 ft 401 kts 243°
2026-05-05 08:58 6.74709 79.25040 20816 ft 403 kts 243°
2026-05-05 08:58 6.73449 79.22493 21297 ft 406 kts 243°
2026-05-05 08:58 6.72182 79.19946 21758 ft 410 kts 243°
2026-05-05 08:59 6.70900 79.17386 22173 ft 414 kts 243°
2026-05-05 08:59 6.69587 79.14782 22620 ft 418 kts 243°
2026-05-05 08:59 6.68267 79.12176 23058 ft 422 kts 243°
2026-05-05 08:59 6.66934 79.09544 23576 ft 423 kts 243°
2026-05-05 09:00 6.65599 79.06913 23933 ft 428 kts 243°
2026-05-05 09:00 6.64227 79.04211 24318 ft 432 kts 243°
2026-05-05 09:00 6.62873 79.01537 24787 ft 434 kts 243°
2026-05-05 09:00 6.61505 78.98822 25215 ft 437 kts 243°
2026-05-05 09:01 6.60130 78.96097 25636 ft 439 kts 242°
2026-05-05 09:01 6.58639 78.93416 26020 ft 442 kts 238°
2026-05-05 09:01 6.56974 78.90848 26519 ft 442 kts 234°
2026-05-05 09:01 6.55140 78.88370 26894 ft 445 kts 232°
2026-05-05 09:02 6.53108 78.85953 27136 ft 451 kts 228°
2026-05-05 09:02 6.50961 78.83658 27529 ft 453 kts 226°
2026-05-05 09:02 6.48775 78.81422 27885 ft 455 kts 225°
2026-05-05 09:02 6.46516 78.79155 28242 ft 458 kts 225°
2026-05-05 09:03 6.44259 78.76901 28658 ft 459 kts 225°
2026-05-05 09:03 6.41970 78.74612 29017 ft 462 kts 225°
2026-05-05 09:03 6.39696 78.72333 29423 ft 463 kts 225°
2026-05-05 09:03 6.37433 78.70059 29986 ft 460 kts 225°
2026-05-05 09:04 6.35163 78.67773 30524 ft 458 kts 225°
2026-05-05 09:04 6.32947 78.65538 31019 ft 456 kts 225°
2026-05-05 09:04 6.30689 78.63258 31490 ft 455 kts 225°
2026-05-05 09:04 6.28440 78.60986 31747 ft 459 kts 225°
2026-05-05 09:05 6.26196 78.58718 31821 ft 461 kts 225°
2026-05-05 09:05 6.21694 78.54164 31833 ft 456 kts 225°
2026-05-05 09:06 6.17237 78.49649 31832 ft 457 kts 225°
2026-05-05 09:06 6.12755 78.45114 31838 ft 457 kts 225°
2026-05-05 09:07 6.08268 78.40577 31836 ft 458 kts 225°
2026-05-05 09:07 6.03776 78.36036 31836 ft 458 kts 225°
2026-05-05 09:08 5.99287 78.31500 31833 ft 460 kts 225°
2026-05-05 09:08 5.94776 78.26941 31836 ft 460 kts 225°
2026-05-05 09:09 5.90271 78.22387 31838 ft 459 kts 225°
2026-05-05 09:09 5.85759 78.17827 31837 ft 459 kts 225°
2026-05-05 09:10 5.81266 78.13290 31833 ft 459 kts 225°
2026-05-05 09:10 5.76724 78.08703 31827 ft 458 kts 225°
2026-05-05 09:11 5.72237 78.04172 31825 ft 459 kts 225°
2026-05-05 09:11 5.68309 77.99133 31822 ft 460 kts 241°
2026-05-05 09:12 5.65898 77.93182 31823 ft 460 kts 252°
2026-05-05 09:12 5.64023 77.87058 31823 ft 459 kts 254°
2026-05-05 09:13 5.62226 77.80898 31823 ft 461 kts 254°
2026-05-05 09:13 5.60409 77.74741 31823 ft 459 kts 253°
2026-05-05 09:14 5.58571 77.68607 31825 ft 460 kts 253°
2026-05-05 09:14 5.56726 77.62502 31828 ft 458 kts 253°
2026-05-05 09:15 5.54858 77.56352 31830 ft 460 kts 253°
2026-05-05 09:15 5.52998 77.50240 31830 ft 459 kts 253°
2026-05-05 09:16 5.51122 77.44087 31832 ft 461 kts 253°
2026-05-05 09:16 5.49250 77.37948 31832 ft 459 kts 253°
2026-05-05 09:17 5.47378 77.31812 31838 ft 459 kts 253°
2026-05-05 09:17 5.45508 77.25686 31835 ft 460 kts 253°
2026-05-05 09:18 5.43644 77.19587 31839 ft 458 kts 253°
2026-05-05 09:18 5.41770 77.13451 31841 ft 460 kts 253°
2026-05-05 09:19 5.39898 77.07325 31842 ft 459 kts 253°
2026-05-05 09:19 5.38024 77.01195 31842 ft 460 kts 253°
2026-05-05 09:20 5.36149 76.95067 31843 ft 458 kts 253°
2026-05-05 09:20 5.34279 76.88963 31842 ft 459 kts 253°
2026-05-05 09:21 5.32408 76.82848 31843 ft 459 kts 253°
2026-05-05 09:21 5.30533 76.76720 31842 ft 460 kts 253°
2026-05-05 09:22 5.28655 76.70590 31845 ft 461 kts 253°
2026-05-05 09:22 5.26766 76.64426 31846 ft 462 kts 253°
2026-05-05 09:23 5.24896 76.58328 31851 ft 461 kts 253°
2026-05-05 09:23 5.23004 76.52156 31849 ft 460 kts 253°
2026-05-05 09:24 5.21116 76.46007 31856 ft 462 kts 253°
2026-05-05 09:24 5.19222 76.39836 31854 ft 463 kts 253°
2026-05-05 09:25 5.17335 76.33690 31847 ft 463 kts 253°
2026-05-05 09:25 5.15432 76.27486 31842 ft 463 kts 253°
2026-05-05 09:26 5.13535 76.21312 31840 ft 463 kts 253°
2026-05-05 09:26 5.11642 76.15152 31839 ft 463 kts 253°
2026-05-05 09:27 5.09750 76.08993 31843 ft 464 kts 253°
2026-05-05 09:27 5.07841 76.02776 31843 ft 464 kts 253°
2026-05-05 09:28 5.05939 75.96585 31842 ft 466 kts 253°
2026-05-05 09:28 5.04025 75.90353 31842 ft 467 kts 252°
2026-05-05 09:29 5.02122 75.84158 31842 ft 465 kts 252°
2026-05-05 09:29 5.00227 75.77991 31843 ft 464 kts 252°
2026-05-05 09:30 4.98327 75.71812 31842 ft 465 kts 252°
2026-05-05 09:30 4.96342 75.65636 31842 ft 464 kts 249°
2026-05-05 09:31 4.93620 75.59761 31842 ft 463 kts 241°
2026-05-05 09:31 4.90397 75.54158 31843 ft 464 kts 238°
2026-05-05 09:32 4.87101 75.48610 31843 ft 463 kts 238°
2026-05-05 09:32 4.83837 75.43043 31843 ft 462 kts 239°
2026-05-05 09:33 4.80620 75.37483 31843 ft 461 kts 239°
2026-05-05 09:33 4.77398 75.31879 31842 ft 461 kts 239°
2026-05-05 09:34 4.74196 75.26296 31842 ft 462 kts 239°
2026-05-05 09:34 4.70988 75.20698 31842 ft 461 kts 239°
2026-05-05 09:35 4.67783 75.15105 31792 ft 461 kts 239°
2026-05-05 09:35 4.64583 75.09519 31279 ft 460 kts 239°
2026-05-05 09:35 4.62991 75.06741 31018 ft 459 kts 239°
2026-05-05 09:36 4.61395 75.03957 30757 ft 461 kts 239°
2026-05-05 09:36 4.59804 75.01180 30496 ft 461 kts 239°
2026-05-05 09:36 4.58202 74.98386 30240 ft 462 kts 239°
2026-05-05 09:36 4.56617 74.95620 29990 ft 463 kts 239°
2026-05-05 09:37 4.55008 74.92813 29737 ft 464 kts 239°
2026-05-05 09:37 4.53414 74.90033 29488 ft 465 kts 239°
2026-05-05 09:37 4.51802 74.87221 29237 ft 465 kts 239°
2026-05-05 09:37 4.50176 74.84386 28977 ft 466 kts 239°
2026-05-05 09:38 4.48573 74.81590 28725 ft 467 kts 239°
2026-05-05 09:38 4.46954 74.78767 28468 ft 467 kts 239°
2026-05-05 09:38 4.45338 74.75951 28227 ft 467 kts 239°
2026-05-05 09:38 4.43710 74.73112 27984 ft 467 kts 239°
2026-05-05 09:39 4.42106 74.70317 27743 ft 466 kts 239°
2026-05-05 09:39 4.40480 74.67484 27496 ft 466 kts 239°
2026-05-05 09:39 4.38873 74.64683 27253 ft 467 kts 240°
2026-05-05 09:39 4.37280 74.61906 26840 ft 462 kts 240°
2026-05-05 09:40 4.35689 74.59132 26558 ft 451 kts 240°
2026-05-05 09:40 4.34139 74.56432 26321 ft 437 kts 240°
2026-05-05 09:40 4.32657 74.53848 26076 ft 424 kts 240°
2026-05-05 09:40 4.31221 74.51345 25752 ft 413 kts 240°
2026-05-05 09:41 4.29790 74.48850 25194 ft 409 kts 240°
2026-05-05 09:41 4.28392 74.46411 24634 ft 405 kts 240°
2026-05-05 09:41 4.26998 74.43983 24080 ft 400 kts 240°
2026-05-05 09:41 4.25607 74.41559 23185 ft 403 kts 240°
2026-05-05 09:42 4.24221 74.39143 22271 ft 405 kts 240°
2026-05-05 09:42 4.22828 74.36716 21533 ft 401 kts 240°
2026-05-05 09:42 4.21446 74.34307 20906 ft 395 kts 240°
2026-05-05 09:42 4.20086 74.31934 20252 ft 389 kts 240°
2026-05-05 09:43 4.18764 74.29625 19577 ft 384 kts 240°
2026-05-05 09:43 4.17434 74.27306 18851 ft 381 kts 240°
2026-05-05 09:43 4.16134 74.25040 18202 ft 375 kts 240°
2026-05-05 09:43 4.14842 74.22785 17494 ft 371 kts 240°
2026-05-05 09:44 4.13578 74.20580 16841 ft 367 kts 240°
2026-05-05 09:44 4.12304 74.18361 16117 ft 365 kts 240°
2026-05-05 09:44 4.11056 74.16187 15498 ft 361 kts 240°
2026-05-05 09:44 4.09812 74.14020 14950 ft 359 kts 240°
2026-05-05 09:45 4.08560 74.11843 14406 ft 357 kts 240°
2026-05-05 09:45 4.07332 74.09710 13883 ft 351 kts 240°
2026-05-05 09:45 4.06135 74.07631 13378 ft 345 kts 240°
2026-05-05 09:45 4.04934 74.05548 12864 ft 340 kts 240°
2026-05-05 09:46 4.03769 74.03533 12411 ft 333 kts 240°
2026-05-05 09:46 4.02624 74.01548 11986 ft 327 kts 240°
2026-05-05 09:46 4.01500 73.99602 11522 ft 322 kts 240°
2026-05-05 09:46 4.00385 73.97669 11043 ft 322 kts 241°
2026-05-05 09:47 3.99263 73.95719 10578 ft 321 kts 241°
2026-05-05 09:47 3.98163 73.93805 10303 ft 313 kts 241°
2026-05-05 09:47 3.97090 73.91941 10193 ft 301 kts 241°
2026-05-05 09:47 3.96061 73.90155 10066 ft 290 kts 241°
2026-05-05 09:48 3.95161 73.88377 9737 ft 286 kts 250°
2026-05-05 09:48 3.94746 73.86444 9352 ft 284 kts 268°
2026-05-05 09:48 3.94754 73.84485 8995 ft 282 kts 273°
2026-05-05 09:48 3.94842 73.82554 8648 ft 280 kts 272°
2026-05-05 09:49 3.94899 73.80592 8298 ft 278 kts 271°
2026-05-05 09:49 3.94919 73.78677 8004 ft 274 kts 271°
2026-05-05 09:49 3.94922 73.76798 7884 ft 264 kts 271°
2026-05-05 09:49 3.94922 73.74976 7521 ft 265 kts 270°
2026-05-05 09:50 3.94927 73.73133 7403 ft 257 kts 273°
2026-05-05 09:50 3.95334 73.71392 7473 ft 265 kts 297°
2026-05-05 09:50 3.96519 73.69991 7489 ft 266 kts 324°
2026-05-05 09:50 3.98229 73.69304 7495 ft 269 kts 349°
2026-05-05 09:51 4.00128 73.69125 7497 ft 270 kts 351°
2026-05-05 09:51 4.01978 73.68816 7493 ft 268 kts 346°
2026-05-05 09:51 4.03813 73.68421 7493 ft 268 kts 346°
2026-05-05 09:51 4.05631 73.68050 7485 ft 269 kts 347°
2026-05-05 09:52 4.07511 73.67705 7374 ft 270 kts 348°
2026-05-05 09:52 4.09356 73.67391 7259 ft 268 kts 349°
2026-05-05 09:52 4.11190 73.67086 7144 ft 267 kts 349°
2026-05-05 09:52 4.13033 73.66775 7021 ft 266 kts 349°
2026-05-05 09:53 4.14865 73.66464 6901 ft 267 kts 348°
2026-05-05 09:53 4.16710 73.66148 6779 ft 265 kts 349°
2026-05-05 09:53 4.18530 73.65839 6661 ft 265 kts 348°
2026-05-05 09:53 4.20358 73.65529 6547 ft 266 kts 348°
2026-05-05 09:54 4.22197 73.65216 6426 ft 265 kts 348°
2026-05-05 09:54 4.24002 73.64909 6308 ft 264 kts 348°
2026-05-05 09:54 4.25815 73.64600 6184 ft 263 kts 348°
2026-05-05 09:54 4.27629 73.64291 6059 ft 263 kts 348°
2026-05-05 09:55 4.29425 73.63986 5834 ft 260 kts 348°
2026-05-05 09:55 4.31213 73.63683 5615 ft 254 kts 349°
2026-05-05 09:55 4.32931 73.63391 5422 ft 248 kts 348°
2026-05-05 09:55 4.34623 73.63103 5229 ft 242 kts 348°
2026-05-05 09:56 4.36269 73.62823 5035 ft 237 kts 348°
2026-05-05 09:56 4.37918 73.62541 4840 ft 236 kts 348°
2026-05-05 09:56 4.39538 73.62264 4650 ft 235 kts 348°
2026-05-05 09:56 4.41152 73.61984 4459 ft 235 kts 346°
2026-05-05 09:57 4.42692 73.61465 4233 ft 233 kts 327°
2026-05-05 09:57 4.43813 73.60343 4008 ft 226 kts 298°
2026-05-05 09:57 4.44357 73.58886 3983 ft 224 kts 283°
2026-05-05 09:57 4.44555 73.57333 3977 ft 224 kts 272°
2026-05-05 09:58 4.44455 73.55778 3976 ft 225 kts 258°
2026-05-05 09:58 4.43780 73.54358 3979 ft 229 kts 232°
2026-05-05 09:58 4.42520 73.53397 3979 ft 234 kts 204°
2026-05-05 09:58 4.40893 73.53091 3861 ft 240 kts 185°
2026-05-05 09:59 4.39198 73.53066 3507 ft 243 kts 181°
2026-05-05 09:59 4.37501 73.53090 3163 ft 242 kts 182°
2026-05-05 09:59 4.35837 73.53097 2853 ft 238 kts 182°
2026-05-05 09:59 4.34184 73.53096 2533 ft 232 kts 182°
2026-05-05 10:00 4.32589 73.53095 2232 ft 225 kts 182°
2026-05-05 10:00 4.31069 73.53097 1948 ft 214 kts 182°
2026-05-05 10:00 4.29623 73.53099 1689 ft 198 kts 182°
2026-05-05 10:00 4.28275 73.53101 1417 ft 186 kts 182°
2026-05-05 10:01 4.27021 73.53101 1209 ft 170 kts 182°
2026-05-05 10:01 4.25867 73.53102 957 ft 159 kts 183°
2026-05-05 10:01 4.24803 73.53102 759 ft 150 kts 182°
2026-05-05 10:01 4.23746 73.53110 611 ft 151 kts 182°
2026-05-05 10:02 4.22700 73.53114 412 ft 152 kts 182°
2026-05-05 10:02 4.21629 73.53101 180 ft 152 kts 183°
2026-05-05 10:02 4.20576 73.53099 30 ft 151 kts 181°
2026-05-05 10:02 4.19623 73.53100 11 ft 106 kts 181°
2026-05-05 10:03 4.19063 73.53104 11 ft 61 kts 181°
2026-05-05 10:03 4.18727 73.53101 11 ft 33 kts 180°
2026-05-05 10:03 4.18580 73.53098 11 ft 11 kts 191°
2026-05-05 10:03 4.18548 73.53061 11 ft 6 kts 262°
2026-05-05 10:04 4.18548 73.53017 11 ft 5 kts 266°
2026-05-05 10:04 4.18545 73.52982 11 ft 5 kts 265°
2026-05-05 10:04 4.18518 73.52921 11 ft 11 kts 200°
2026-05-05 10:04 4.18442 73.52923 11 ft 10 kts 176°
2026-05-05 10:05 4.18356 73.52927 11 ft 14 kts 177°
2026-05-05 10:05 4.18238 73.52930 11 ft 19 kts 182°
2026-05-05 10:05 4.18087 73.52930 11 ft 21 kts 179°
2026-05-05 10:05 4.17920 73.52933 11 ft 26 kts 180°
2026-05-05 10:06 4.17842 73.52900 11 ft 9 kts 263°
2026-05-05 10:06 4.17892 73.52868 11 ft 11 kts
2026-05-05 10:06 4.17983 73.52867 11 ft 13 kts 357°
2026-05-05 10:06 4.18046 73.52863 11 ft 2 kts 336°
2026-05-05 10:07 4.18054 73.52834 11 ft 7 kts 270°
2026-05-05 10:07 4.18054 73.52785 11 ft 7 kts 269°
2026-05-05 10:07 4.18054 73.52767 11 ft 2 kts 269°
2026-05-05 10:07 4.18054 73.52763 11 ft 0 kts 269°